DW6462 Weather Reports


time (UTC)temp
F
wind
direction
speed
knots
gust
knots
rain 1hr
in
rain 24hr
in
rain mn
in
humidity
%
barometer
mb
20260504160337 73 217 4.3 13.9 0.00 0.00 0.00 59 1010.5
20260504150833 70 187 3.5 11.3 0.00 0.00 0.00 63 1010.8
20260504150348 70 204 7.0 12.2 0.00 0.00 0.00 62 1010.8
20260504140836 67 211 5.2 10.4 0.00 0.00 0.00 68 1011.3
20260504140350 67 224 4.3 10.4 0.00 0.00 0.00 68 1011.3
20260504130348 63 207 4.3 8.7 0.00 0.00 0.00 75 1011.2
20260504110334 62 207 1.7 7.0 0.00 0.00 0.00 70 1010.8
20260504100351 63 169 5.2 7.8 0.00 0.00 0.00 66 1010.7
20260504081339 64 188 7.0 12.2 0.00 0.00 0.00 63 1010.6
20260504080352 63 190 1.7 9.6 0.00 0.00 0.00 63 1010.7
20260504070342 62 161 0.9 2.6 0.00 0.00 0.00 60 1011.0
20260504050343 59 103 0.0 0.0 0.00 0.00 0.00 62 1012.1
20260504045840 59 103 0.0 0.9 0.00 0.00 0.00 61 1012.1
20260504045334 59 103 0.0 0.9 0.00 0.00 0.00 61 1012.2
20260504044848 59 103 0.0 0.9 0.00 0.00 0.00 60 1012.2
20260504044343 59 103 0.0 0.9 0.00 0.00 0.00 60 1012.3
20260504043843 59 103 0.0 0.9 0.00 0.00 0.00 60 1012.3
20260504042835 59 98 0.0 0.0 0.00 0.00 0.00 60 1012.4
20260504042349 59 98 0.0 0.0 0.00 0.00 0.00 60 1012.4
20260504041843 59 98 0.0 0.0 0.00 0.00 0.00 59 1012.4
20260504041337 60 98 0.0 0.0 0.00 0.00 0.00 59 1012.5
20260504040348 59 98 0.0 0.0 0.00 0.00 0.00 59 1012.5
20260504035843 60 98 0.0 0.0 0.00 0.00 0.00 59 1012.5
20260504035338 60 98 0.0 0.0 0.00 0.00 0.00 60 1012.5
20260504034852 60 98 0.0 0.0 0.00 0.00 0.00 60 1012.6
20260504034346 60 98 0.0 0.0 0.00 0.00 0.00 58 1012.6
20260504033841 60 98 0.0 0.0 0.00 0.00 0.00 59 1012.6
20260504033335 60 98 0.0 0.0 0.00 0.00 0.00 58 1012.8
20260504032347 60 97 0.0 0.9 0.00 0.00 0.00 58 1012.8
20260504031841 60 96 0.0 0.9 0.00 0.00 0.00 58 1013.0
20260504031335 61 92 0.0 0.0 0.00 0.00 0.00 57 1013.0
20260504030850 61 92 0.0 0.0 0.00 0.00 0.00 57 1013.0
20260504030345 61 92 0.0 0.0 0.00 0.00 0.00 56 1013.0
20260504025840 61 92 0.0 0.9 0.00 0.00 0.00 58 1012.9
20260504025337 61 91 0.0 1.7 0.00 0.00 0.00 60 1012.7
20260504024349 63 131 0.9 9.6 0.00 0.00 0.00 59 1012.6
20260504023843 63 183 1.7 7.8 0.00 0.00 0.00 60 1012.6
20260504023338 64 193 5.2 7.8 0.00 0.00 0.00 62 1012.5
20260504022833 63 175 2.6 4.3 0.00 0.00 0.00 58 1012.6
20260504022346 63 190 1.7 4.3 0.00 0.00 0.00 56 1012.5
20260504021841 63 163 1.7 4.3 0.00 0.00 0.00 57 1012.3
20260504021334 63 163 0.9 4.3 0.00 0.00 0.00 55 1012.2
20260504020849 63 174 1.7 3.5 0.00 0.00 0.00 55 1012.2
20260504020341 63 166 0.9 3.5 0.00 0.00 0.00 53 1012.1
20260504015351 64 167 1.7 2.6 0.00 0.00 0.00 55 1012.3
20260504014846 63 187 0.0 2.6 0.00 0.00 0.00 54 1012.4
20260504014338 63 245 0.0 1.7 0.00 0.00 0.00 53 1012.3
20260504013351 63 175 0.9 2.6 0.00 0.00 0.00 52 1012.4
20260504012846 63 186 0.0 1.7 0.00 0.00 0.00 52 1012.5
20260504012339 63 144 0.0 1.7 0.00 0.00 0.00 52 1012.4
20260504011834 64 144 0.0 1.7 0.00 0.00 0.00 52 1012.4
20260504011348 64 200 0.0 1.7 0.00 0.00 0.00 51 1012.5
20260504010845 65 158 0.0 1.7 0.00 0.00 0.00 51 1012.5
20260504005839 65 153 0.9 2.6 0.00 0.00 0.00 49 1012.5
20260504004348 66 111 0.9 8.7 0.00 0.00 0.00 50 1012.6
20260504003840 68 232 4.3 8.7 0.00 0.00 0.00 54 1012.6
20260504003334 68 200 3.5 10.4 0.00 0.00 0.00 52 1012.6
20260504002848 68 221 6.1 10.4 0.00 0.00 0.00 51 1012.7
20260504002342 68 170 5.2 9.6 0.00 0.00 0.00 49 1012.7
20260504001837 68 215 6.1 13.0 0.00 0.00 0.00 49 1012.6
20260504001352 69 218 4.3 13.0 0.00 0.00 0.00 51 1012.6
20260504000846 69 188 7.8 11.3 0.00 0.00 0.00 49 1012.6
20260503235838 69 196 6.1 12.2 0.00 0.00 0.00 50 1012.8
20260503235332 69 207 7.0 12.2 0.00 0.00 0.00 47 1012.8
20260503234847 69 165 6.1 11.3 0.00 0.00 0.00 52 1012.8
20260503234343 69 205 7.0 11.3 0.00 0.00 0.00 51 1012.8
20260503231339 69 198 7.0 13.9 0.00 0.00 0.00 47 1013.3
20260503230834 69 199 7.0 12.2 0.00 0.00 0.00 48 1013.4
20260503225843 70 190 4.3 13.0 0.00 0.00 0.00 46 1013.5
20260503225337 69 176 6.1 13.9 0.00 0.00 0.00 52 1013.4
20260503224851 69 207 7.8 15.6 0.00 0.00 0.00 50 1013.5
20260503223842 70 183 5.2 11.3 0.00 0.00 0.00 44 1013.7
20260503222834 70 220 6.1 11.3 0.00 0.00 0.00 48 1013.7
20260503222348 70 184 3.5 11.3 0.00 0.00 0.00 46 1013.9
20260503221846 70 218 4.3 13.9 0.00 0.00 0.00 50 1014.0
20260503221342 69 189 7.8 13.9 0.00 0.00 0.00 48 1014.1
20260503220337 70 175 3.5 9.6 0.00 0.00 0.00 47 1014.3
20260503215832 70 186 4.3 8.7 0.00 0.00 0.00 48 1014.3
20260503215346 69 184 4.3 8.7 0.00 0.00 0.00 47 1014.4
20260503214338 69 175 5.2 12.2 0.00 0.00 0.00 49 1014.7
20260503213832 69 211 5.2 13.0 0.00 0.00 0.00 47 1014.7
20260503213348 69 178 7.0 13.0 0.00 0.00 0.00 52 1014.8
20260503212843 69 195 6.1 13.0 0.00 0.00 0.00 49 1014.7
20260503212337 68 230 6.1 14.8 0.00 0.00 0.00 45 1014.9
20260503211852 68 211 9.6 14.8 0.00 0.00 0.00 45 1015.0
20260503211346 68 200 7.8 16.5 0.00 0.00 0.00 46 1015.2
20260503210840 69 217 7.8 16.5 0.00 0.00 0.00 47 1015.3
20260503205852 68 183 6.1 12.2 0.00 0.00 0.00 44 1015.5
20260503204841 68 216 7.8 14.8 0.00 0.00 0.00 45 1015.5
20260503204336 68 185 4.3 12.2 0.00 0.00 0.00 45 1015.7
20260503203849 68 176 6.1 12.2 0.00 0.00 0.00 47 1016.0
20260503203344 68 184 6.1 9.6 0.00 0.00 0.00 45 1016.1
20260503202843 67 188 6.1 11.3 0.00 0.00 0.00 46 1016.2
20260503202337 68 261 7.0 12.2 0.00 0.00 0.00 51 1016.3
20260503201853 67 254 7.8 12.2 0.00 0.00 0.00 47 1016.3
20260503201347 67 205 7.0 12.2 0.00 0.00 0.00 46 1016.5
20260503200842 67 211 4.3 12.2 0.00 0.00 0.00 50 1016.5
20260503195834 67 204 7.0 11.3 0.00 0.00 0.00 45 1016.8
20260503195349 67 252 7.0 11.3 0.00 0.00 0.00 49 1016.9
20260503194843 67 190 5.2 15.6 0.00 0.00 0.00 45 1016.9
20260503193835 67 212 3.5 12.2 0.00 0.00 0.00 43 1017.1
20260503193348 67 161 7.0 12.2 0.00 0.00 0.00 46 1017.3
20260503192843 66 228 4.3 13.0 0.00 0.00 0.00 47 1017.4
20260503192338 66 185 7.8 15.6 0.00 0.00 0.00 46 1017.4
20260503191833 66 214 9.6 13.9 0.00 0.00 0.00 46 1017.6
20260503190842 66 192 5.2 14.8 0.00 0.00 0.00 47 1017.8
20260503185834 66 174 2.6 11.3 0.00 0.00 0.00 46 1018.1
20260503185349 66 197 2.6 11.3 0.00 0.00 0.00 51 1018.2
20260503184844 65 219 3.5 14.8 0.00 0.00 0.00 47 1018.3
20260503184339 65 215 7.0 14.8 0.00 0.00 0.00 50 1018.4
20260503183837 65 194 1.7 12.2 0.00 0.00 0.00 45 1018.5
20260503183350 65 196 3.5 13.9 0.00 0.00 0.00 46 1018.7
20260503182847 65 226 7.0 13.9 0.00 0.00 0.00 51 1018.7
20260503182341 64 252 6.1 9.6 0.00 0.00 0.00 44 1018.9
20260503181333 64 263 5.2 11.3 0.00 0.00 0.00 48 1019.0
20260503180846 65 210 3.5 11.3 0.00 0.00 0.00 50 1019.0
20260503180340 64 188 3.5 10.4 0.00 0.00 0.00 48 1019.0
20260503175833 64 173 3.5 6.1 0.00 0.00 0.00 50 1019.0
20260503175347 64 172 2.6 8.7 0.00 0.00 0.00 49 1019.1
20260503174842 63 194 2.6 8.7 0.00 0.00 0.00 46 1019.2
20260503174337 63 134 1.7 7.0 0.00 0.00 0.00 47 1019.3
20260503173834 63 210 3.5 7.0 0.00 0.00 0.00 51 1019.3
20260503173350 63 169 1.7 8.7 0.00 0.00 0.00 50 1019.5
20260503172841 62 221 6.1 11.3 0.00 0.00 0.00 57 1019.5